• In Russia
  • List of Countries
  • For 7 days
  • Water Temperature
  • Satellite Maps
  • Weather Map
  • Weather Widgets
  • user-avatar
    Login

    Hourly Weather Mbandaka

    Today, 23 March, Saturday

    Time Temperature Precipitation Wind Pressure Humidity
    00:00 +26°C° 0.1 mm 0 mps 728 mmHg 72%
    01:00 +25°C° 0.1 mm 0 mps 728 mmHg 75%
    02:00 +24°C° 2.4 mm 0 mps 728 mmHg 82%
    03:00 +24°C° 2.4 mm 0 mps 728 mmHg 90%
    04:00 +25°C° 2.4 mm 1 mps 728 mmHg 97%
    05:00 +25°C° 4.2 mm 1 mps 729 mmHg 97%
    06:00 +25°C° 4.2 mm 1 mps 729 mmHg 98%
    07:00 +25°C° 4.2 mm 1 mps 730 mmHg 98%
    08:00 +26°C° 0.2 mm 2 mps 730 mmHg 92%
    09:00 +27°C° 0.2 mm 2 mps 730 mmHg 87%
    10:00 +28°C° 0.2 mm 2 mps 731 mmHg 82%
    11:00 +31°C° 0 mm 2 mps 730 mmHg 68%
    12:00 +35°C° 0 mm 2 mps 729 mmHg 55%
    13:00 +38°C° 0 mm 2 mps 728 mmHg 41%
    14:00 +38°C° 0 mm 2 mps 728 mmHg 41%
    15:00 +38°C° 0 mm 2 mps 727 mmHg 41%
    16:00 +37°C° 0 mm 2 mps 727 mmHg 42%
    17:00 +35°C° 1.9 mm 2 mps 727 mmHg 54%
    18:00 +31°C° 1.9 mm 2 mps 727 mmHg 67%
    19:00 +28°C° 1.9 mm 2 mps 727 mmHg 79%
    20:00 +27°C° 3 mm 2 mps 728 mmHg 85%
    21:00 +26°C° 3 mm 1 mps 728 mmHg 90%
    22:00 +26°C° 3 mm 1 mps 729 mmHg 96%
    23:00 +26°C° 0 mm 1 mps 729 mmHg 96%

    Tomorrow, 24 March, Sunday

    Time Temperature Precipitation Wind Pressure Humidity
    00:00 +25°C° 0 mm 2 mps 730 mmHg 96%
    01:00 +25°C° 0 mm 2 mps 730 mmHg 96%
    02:00 +25°C° 0.2 mm 2 mps 729 mmHg 96%
    03:00 +25°C° 0.2 mm 2 mps 729 mmHg 96%
    04:00 +25°C° 0.2 mm 2 mps 729 mmHg 96%
    05:00 +25°C° 0 mm 1 mps 730 mmHg 94%
    06:00 +26°C° 0 mm 1 mps 730 mmHg 93%
    07:00 +26°C° 0 mm 1 mps 731 mmHg 91%
    08:00 +27°C° 0 mm 2 mps 731 mmHg 82%
    09:00 +29°C° 0 mm 2 mps 731 mmHg 72%
    10:00 +31°C° 0 mm 3 mps 732 mmHg 62%
    11:00 +33°C° 0 mm 3 mps 731 mmHg 57%
    12:00 +34°C° 0 mm 3 mps 730 mmHg 51%
    13:00 +36°C° 0 mm 3 mps 730 mmHg 45%
    14:00 +36°C° 0 mm 3 mps 729 mmHg 45%
    15:00 +36°C° 0 mm 3 mps 728 mmHg 45%
    16:00 +36°C° 0 mm 2 mps 728 mmHg 45%
    17:00 +34°C° 0 mm 2 mps 728 mmHg 53%
    18:00 +31°C° 0 mm 1 mps 728 mmHg 62%
    19:00 +28°C° 0 mm 1 mps 728 mmHg 70%
    20:00 +28°C° 0 mm 1 mps 728 mmHg 72%
    21:00 +27°C° 0 mm 1 mps 729 mmHg 75%
    22:00 +27°C° 0 mm 1 mps 729 mmHg 78%
    23:00 +26°C° 0 mm 1 mps 729 mmHg 79%

    Day after tomorrow, 25 March, Monday

    Time Temperature Precipitation Wind Pressure Humidity
    00:00 +26°C° 0 mm 1 mps 729 mmHg 81%
    01:00 +26°C° 0 mm 1 mps 729 mmHg 82%
    02:00 +25°C° 0.3 mm 1 mps 729 mmHg 85%
    03:00 +25°C° 0.3 mm 1 mps 729 mmHg 88%
    04:00 +24°C° 0.3 mm 1 mps 729 mmHg 91%
    05:00 +25°C° 0 mm 1 mps 730 mmHg 89%
    06:00 +25°C° 0 mm 1 mps 731 mmHg 87%
    07:00 +26°C° 0 mm 1 mps 731 mmHg 86%
    08:00 +28°C° 0 mm 1 mps 732 mmHg 75%
    09:00 +31°C° 0 mm 2 mps 733 mmHg 64%
    10:00 +34°C° 0 mm 2 mps 734 mmHg 53%
    11:00 +31°C° 3.5 mm 2 mps 733 mmHg 67%
    12:00 +28°C° 3.5 mm 1 mps 732 mmHg 81%
    13:00 +26°C° 3.5 mm 1 mps 731 mmHg 95%
    14:00 +26°C° 0.3 mm 1 mps 730 mmHg 95%
    15:00 +26°C° 0.3 mm 1 mps 729 mmHg 95%
    16:00 +26°C° 0.3 mm 1 mps 729 mmHg 95%
    17:00 +26°C° 0 mm 1 mps 729 mmHg 96%
    18:00 +25°C° 0 mm 1 mps 729 mmHg 96%
    19:00 +25°C° 0 mm 1 mps 729 mmHg 97%
    20:00 +25°C° 0 mm 1 mps 730 mmHg 98%
    21:00 +24°C° 0 mm 1 mps 730 mmHg 98%
    22:00 +24°C° 0 mm 1 mps 730 mmHg 98%
    23:00 +22°C° 0 mm 0 mps 730 mmHg 98%

    26 March, Tuesday

    Time Temperature Precipitation Wind Pressure Humidity
    00:00 +22°C° 0 mm 0 mps 730 mmHg 97%
    01:00 +22°C° 0 mm 0 mps 729 mmHg 97%
    02:00 +21°C° 0.8 mm 0 mps 729 mmHg 97%
    03:00 +21°C° 0.8 mm 0 mps 730 mmHg 98%
    04:00 +21°C° 0.8 mm 0 mps 730 mmHg 98%
    05:00 +22°C° 0.2 mm 0 mps 731 mmHg 97%
    06:00 +22°C° 0.2 mm 0 mps 731 mmHg 96%
    07:00 +23°C° 0.2 mm 0 mps 732 mmHg 96%
    08:00 +25°C° 0 mm 0 mps 732 mmHg 83%
    09:00 +30°C° 0 mm 1 mps 732 mmHg 70%
    10:00 +33°C° 0 mm 1 mps 733 mmHg 56%
    11:00 +34°C° 0 mm 1 mps 732 mmHg 53%
    12:00 +34°C° 0 mm 1 mps 731 mmHg 49%
    13:00 +35°C° 0 mm 1 mps 730 mmHg 46%
    14:00 +35°C° 0 mm 1 mps 730 mmHg 46%
    15:00 +35°C° 0 mm 1 mps 729 mmHg 46%
    16:00 +35°C° 0 mm 1 mps 729 mmHg 47%
    17:00 +33°C° 0 mm 1 mps 729 mmHg 54%
    18:00 +31°C° 0 mm 1 mps 730 mmHg 61%
    19:00 +27°C° 0 mm 0 mps 730 mmHg 69%
    20:00 +26°C° 0.1 mm 0 mps 730 mmHg 74%
    21:00 +25°C° 0.1 mm 0 mps 731 mmHg 78%
    22:00 +24°C° 0.1 mm 0 mps 731 mmHg 83%
    23:00 +24°C° 0 mm 0 mps 730 mmHg 84%

    27 March, Wednesday

    Time Temperature Precipitation Wind Pressure Humidity
    00:00 +23°C° 0 mm 0 mps 730 mmHg 86%
    01:00 +23°C° 0 mm 0 mps 730 mmHg 87%
    02:00 +23°C° 0 mm 0 mps 730 mmHg 88%
    03:00 +23°C° 0 mm 0 mps 730 mmHg 89%
    04:00 +22°C° 0 mm 0 mps 730 mmHg 90%
    05:00 +25°C° 0 mm 1 mps 731 mmHg 87%
    06:00 +26°C° 0 mm 1 mps 731 mmHg 84%
    07:00 +26°C° 0 mm 1 mps 732 mmHg 81%
    08:00 +29°C° 0 mm 1 mps 732 mmHg 69%
    09:00 +33°C° 0 mm 1 mps 733 mmHg 57%
    10:00 +36°C° 0 mm 1 mps 733 mmHg 45%
    11:00 +36°C° 0 mm 1 mps 732 mmHg 44%
    12:00 +36°C° 0 mm 1 mps 731 mmHg 43%
    13:00 +36°C° 0 mm 1 mps 730 mmHg 42%
    14:00 +36°C° 0 mm 1 mps 729 mmHg 43%
    15:00 +36°C° 0 mm 1 mps 729 mmHg 45%
    16:00 +35°C° 0 mm 1 mps 729 mmHg 46%
    17:00 +34°C° 0 mm 1 mps 729 mmHg 51%
    18:00 +32°C° 0 mm 1 mps 729 mmHg 56%
    19:00 +30°C° 0 mm 1 mps 730 mmHg 61%
    20:00 +29°C° 4.6 mm 2 mps 730 mmHg 70%
    21:00 +28°C° 4.6 mm 2 mps 731 mmHg 80%
    22:00 +27°C° 4.6 mm 3 mps 731 mmHg 89%
    23:00 +26°C° 0.7 mm 2 mps 731 mmHg 89%

    28 March, Thursday

    Time Temperature Precipitation Wind Pressure Humidity
    00:00 +26°C° 0.7 mm 1 mps 730 mmHg 89%
    01:00 +25°C° 0.7 mm 1 mps 730 mmHg 89%
    02:00 +23°C° 0 mm 0 mps 730 mmHg 90%
    03:00 +23°C° 0 mm 0 mps 730 mmHg 90%
    04:00 +22°C° 0 mm 0 mps 730 mmHg 91%
    05:00 +23°C° 0 mm 0 mps 731 mmHg 89%
    06:00 +24°C° 0 mm 0 mps 731 mmHg 87%
    07:00 +24°C° 0 mm 0 mps 732 mmHg 85%
    08:00 +30°C° 0 mm 1 mps 732 mmHg 70%
    09:00 +33°C° 0 mm 1 mps 733 mmHg 55%
    10:00 +36°C° 0 mm 1 mps 733 mmHg 41%
    11:00 +37°C° 0 mm 1 mps 732 mmHg 37%
    12:00 +39°C° 0 mm 1 mps 731 mmHg 34%
    13:00 +41°C° 0 mm 1 mps 730 mmHg 31%
    14:00 +39°C° 0 mm 1 mps 729 mmHg 36%
    15:00 +37°C° 0 mm 1 mps 729 mmHg 40%
    16:00 +36°C° 0 mm 1 mps 728 mmHg 44%
    17:00 +32°C° 0 mm 0 mps 728 mmHg 50%
    18:00 +30°C° 0 mm 0 mps 729 mmHg 55%
    19:00 +28°C° 0 mm 0 mps 729 mmHg 61%
    20:00 +27°C° 0.1 mm 0 mps 729 mmHg 64%
    21:00 +26°C° 0.1 mm 0 mps 729 mmHg 67%
    22:00 +26°C° 0.1 mm 0 mps 730 mmHg 70%
    23:00 +25°C° 0 mm 0 mps 729 mmHg 73%
    Show more